| time (UTC) | temp F | wind direction | speed MPH | gust MPH | rain 1hr in | rain 24hr in | rain mn in | humidity % | barometer mb |
| 20260507071530 | 57 | 232 | 4.0 | 7.0 | 0.00 | 0.00 | 0.00 | 80 | 1011.3 |
| 20260507070035 | 56 | 272 | 3.0 | 6.0 | 0.00 | 0.00 | 0.00 | 82 | 1011.2 |
| 20260507064524 | 55 | 278 | 1.0 | 2.0 | 0.00 | 0.00 | 0.00 | 82 | 1011.3 |
| 20260507063025 | 55 | 279 | 2.0 | 6.0 | 0.00 | 0.00 | 0.00 | 82 | 1011.1 |
| 20260507061527 | 54 | 295 | 2.0 | 3.0 | 0.00 | 0.00 | 0.00 | 83 | 1011.0 |
| 20260507060026 | 54 | 295 | 1.0 | 3.0 | 0.00 | 0.00 | 0.00 | 82 | 1010.8 |
| 20260507054536 | 54 | 295 | 2.0 | 3.0 | 0.00 | 0.00 | 0.00 | 82 | 1010.7 |
| 20260507053018 | 54 | 294 | 1.0 | 3.0 | 0.00 | 0.00 | 0.00 | 82 | 1010.5 |
| 20260507051507 | 54 | 327 | 0.0 | 5.0 | 0.00 | 0.00 | 0.00 | 82 | 1010.6 |
| 20260507050009 | 55 | 288 | 2.0 | 4.0 | 0.00 | 0.00 | 0.00 | 81 | 1010.4 |
| 20260507044514 | 55 | 255 | 3.0 | 8.0 | 0.00 | 0.00 | 0.00 | 81 | 1010.3 |
| 20260507043018 | 56 | 232 | 4.0 | 8.0 | 0.00 | 0.00 | 0.00 | 80 | 1010.3 |
| 20260507041530 | 56 | 234 | 6.0 | 10.0 | 0.00 | 0.00 | 0.00 | 80 | 1010.4 |
| 20260507040007 | 56 | 238 | 6.0 | 12.0 | 0.00 | 0.00 | 0.00 | 80 | 1010.3 |
| 20260507034515 | 56 | 235 | 5.0 | 9.0 | 0.00 | 0.00 | 0.00 | 81 | 1010.4 |
| 20260507033018 | 56 | 215 | 6.0 | 10.0 | 0.00 | 0.00 | 0.00 | 80 | 1010.5 |
| 20260507031526 | 56 | 236 | 5.0 | 10.0 | 0.00 | 0.00 | 0.00 | 81 | 1010.7 |
| 20260507030025 | 56 | 214 | 4.0 | 8.0 | 0.00 | 0.00 | 0.00 | 81 | 1010.8 |
| 20260507024512 | 56 | 246 | 5.0 | 10.0 | 0.00 | 0.00 | 0.00 | 80 | 1010.8 |
| 20260507023015 | 56 | 257 | 6.0 | 11.0 | 0.00 | 0.00 | 0.00 | 80 | 1010.7 |
| 20260507021518 | 56 | 244 | 7.0 | 10.0 | 0.00 | 0.00 | 0.00 | 81 | 1010.7 |
| 20260507020023 | 56 | 240 | 6.0 | 10.0 | 0.00 | 0.00 | 0.00 | 81 | 1010.8 |
| 20260507014538 | 56 | 256 | 6.0 | 11.0 | 0.00 | 0.00 | 0.00 | 81 | 1010.9 |
| 20260507013021 | 56 | 223 | 7.0 | 12.0 | 0.00 | 0.00 | 0.00 | 82 | 1011.0 |
| 20260507011521 | 55 | 246 | 5.0 | 10.0 | 0.00 | 0.00 | 0.00 | 83 | 1011.1 |
| 20260507010022 | 55 | 270 | 5.0 | 9.0 | 0.00 | 0.00 | 0.00 | 82 | 1011.1 |
| 20260507004534 | 55 | 279 | 5.0 | 8.0 | 0.00 | 0.00 | 0.00 | 82 | 1011.2 |
| 20260507003009 | 55 | 271 | 4.0 | 8.0 | 0.00 | 0.00 | 0.00 | 81 | 1011.2 |
| 20260507001520 | 56 | 277 | 5.0 | 11.0 | 0.00 | 0.00 | 0.00 | 81 | 1011.3 |
| 20260507000025 | 56 | 277 | 6.0 | 12.0 | 0.00 | 0.00 | 0.00 | 80 | 1011.4 |
| 20260506234534 | 57 | 275 | 7.0 | 12.0 | 0.00 | 0.00 | 0.00 | 79 | 1011.4 |
| 20260506233026 | 57 | 267 | 7.0 | 12.0 | 0.00 | 0.00 | 0.00 | 79 | 1011.6 |
| 20260506231528 | 58 | 274 | 8.0 | 15.0 | 0.00 | 0.00 | 0.00 | 78 | 1011.6 |
| 20260506230015 | 58 | 269 | 8.0 | 14.0 | 0.00 | 0.00 | 0.00 | 77 | 1011.6 |
| 20260506224522 | 58 | 259 | 9.0 | 14.0 | 0.00 | 0.00 | 0.00 | 78 | 1011.7 |
| 20260506223042 | 58 | 228 | 7.0 | 13.0 | 0.00 | 0.00 | 0.00 | 80 | 1011.6 |
| 20260506221528 | 58 | 235 | 7.0 | 13.0 | 0.00 | 0.00 | 0.00 | 80 | 1011.7 |
| 20260506220012 | 59 | 245 | 12.0 | 15.0 | 0.00 | 0.00 | 0.00 | 78 | 1011.7 |
| 20260506214520 | 59 | 230 | 9.0 | 19.0 | 0.00 | 0.00 | 0.00 | 77 | 1011.7 |
| 20260506213021 | 59 | 257 | 8.0 | 18.0 | 0.00 | 0.00 | 0.00 | 77 | 1011.6 |
| 20260506211537 | 59 | 238 | 9.0 | 18.0 | 0.00 | 0.00 | 0.00 | 76 | 1011.5 |
| 20260506210033 | 59 | 216 | 11.0 | 20.0 | 0.00 | 0.00 | 0.00 | 76 | 1011.5 |
| 20260506204516 | 59 | 229 | 12.0 | 20.0 | 0.00 | 0.00 | 0.00 | 78 | 1011.4 |
| 20260506203026 | 59 | 223 | 12.0 | 18.0 | 0.00 | 0.00 | 0.00 | 79 | 1011.3 |
| 20260506201506 | 59 | 209 | 11.0 | 18.0 | 0.00 | 0.00 | 0.00 | 80 | 1011.2 |
| 20260506200011 | 59 | 252 | 12.0 | 22.0 | 0.00 | 0.00 | 0.00 | 79 | 1011.2 |
| 20260506194516 | 60 | 224 | 9.0 | 20.0 | 0.00 | 0.00 | 0.00 | 79 | 1011.2 |
| 20260506193020 | 60 | 219 | 11.0 | 21.0 | 0.00 | 0.00 | 0.00 | 80 | 1011.2 |
| 20260506191526 | 60 | 231 | 12.0 | 20.0 | 0.00 | 0.00 | 0.00 | 81 | 1011.1 |
| 20260506190008 | 60 | 186 | 12.0 | 21.0 | 0.00 | 0.00 | 0.00 | 79 | 1011.0 |
| 20260506184511 | 61 | 212 | 11.0 | 23.0 | 0.00 | 0.00 | 0.00 | 78 | 1010.9 |
| 20260506183027 | 61 | 191 | 12.0 | 23.0 | 0.00 | 0.00 | 0.00 | 76 | 1010.8 |
| 20260506181523 | 62 | 222 | 11.0 | 23.0 | 0.00 | 0.00 | 0.00 | 76 | 1010.9 |
| 20260506180027 | 62 | 204 | 10.0 | 21.0 | 0.00 | 0.00 | 0.00 | 75 | 1011.0 |
| 20260506174512 | 62 | 199 | 13.0 | 21.0 | 0.00 | 0.00 | 0.00 | 73 | 1011.2 |
| 20260506173017 | 63 | 201 | 10.0 | 19.0 | 0.00 | 0.00 | 0.00 | 73 | 1011.3 |
| 20260506171529 | 63 | 229 | 11.0 | 23.0 | 0.00 | 0.00 | 0.00 | 72 | 1011.5 |
| 20260506170024 | 63 | 194 | 10.0 | 24.0 | 0.00 | 0.00 | 0.00 | 71 | 1011.6 |
| 20260506164528 | 64 | 238 | 10.0 | 21.0 | 0.00 | 0.00 | 0.00 | 70 | 1011.7 |
| 20260506163014 | 64 | 211 | 13.0 | 23.0 | 0.00 | 0.00 | 0.00 | 68 | 1011.6 |
| 20260506161518 | 64 | 217 | 12.0 | 21.0 | 0.00 | 0.00 | 0.00 | 68 | 1011.6 |
| 20260506160024 | 64 | 190 | 14.0 | 21.0 | 0.00 | 0.00 | 0.00 | 69 | 1011.8 |
| 20260506154532 | 64 | 210 | 15.0 | 20.0 | 0.00 | 0.00 | 0.00 | 67 | 1011.9 |
| 20260506153011 | 64 | 186 | 15.0 | 25.0 | 0.00 | 0.00 | 0.00 | 67 | 1011.9 |
| 20260506151517 | 65 | 204 | 11.0 | 22.0 | 0.00 | 0.00 | 0.00 | 70 | 1012.0 |
| 20260506150022 | 65 | 217 | 11.0 | 18.0 | 0.00 | 0.00 | 0.00 | 69 | 1012.3 |
| 20260506144526 | 65 | 195 | 10.0 | 18.0 | 0.00 | 0.00 | 0.00 | 66 | 1012.5 |
| 20260506143033 | 65 | 242 | 9.0 | 19.0 | 0.00 | 0.00 | 0.00 | 67 | 1012.7 |
| 20260506141514 | 65 | 176 | 10.0 | 21.0 | 0.00 | 0.00 | 0.00 | 65 | 1012.7 |
| 20260506140020 | 64 | 240 | 10.0 | 20.0 | 0.00 | 0.00 | 0.00 | 68 | 1012.9 |
| 20260506134524 | 65 | 207 | 7.0 | 21.0 | 0.00 | 0.00 | 0.00 | 71 | 1013.0 |
| 20260506133029 | 64 | 204 | 14.0 | 21.0 | 0.00 | 0.00 | 0.00 | 71 | 1013.1 |
| 20260506131532 | 64 | 209 | 13.0 | 23.0 | 0.00 | 0.00 | 0.00 | 70 | 1013.2 |
| 20260506130020 | 64 | 207 | 12.0 | 24.0 | 0.00 | 0.00 | 0.00 | 70 | 1013.2 |
| 20260506124524 | 63 | 181 | 11.0 | 21.0 | 0.00 | 0.00 | 0.00 | 74 | 1013.4 |
| 20260506123031 | 63 | 208 | 14.0 | 21.0 | 0.00 | 0.00 | 0.00 | 72 | 1013.6 |
| 20260506121527 | 63 | 209 | 9.0 | 19.0 | 0.00 | 0.00 | 0.00 | 74 | 1013.8 |
| 20260506120018 | 64 | 215 | 12.0 | 19.0 | 0.00 | 0.00 | 0.00 | 73 | 1014.0 |
| 20260506114521 | 63 | 237 | 11.0 | 18.0 | 0.00 | 0.00 | 0.00 | 75 | 1014.2 |
| 20260506113015 | 63 | 232 | 10.0 | 17.0 | 0.00 | 0.00 | 0.00 | 69 | 1014.3 |
| 20260506111509 | 63 | 180 | 7.0 | 17.0 | 0.00 | 0.00 | 0.00 | 70 | 1014.4 |
| 20260506110014 | 62 | 204 | 8.0 | 17.0 | 0.00 | 0.00 | 0.00 | 71 | 1014.5 |
| 20260506104520 | 63 | 198 | 7.0 | 15.0 | 0.00 | 0.00 | 0.00 | 71 | 1014.5 |
| 20260506103010 | 62 | 184 | 9.0 | 14.0 | 0.00 | 0.00 | 0.00 | 72 | 1014.6 |
| 20260506101506 | 62 | 255 | 10.0 | 18.0 | 0.00 | 0.00 | 0.00 | 72 | 1014.4 |
| 20260506100011 | 62 | 244 | 9.0 | 16.0 | 0.00 | 0.00 | 0.00 | 72 | 1014.4 |
| 20260506094520 | 61 | 251 | 11.0 | 15.0 | 0.00 | 0.00 | 0.00 | 74 | 1014.5 |
| 20260506093023 | 61 | 256 | 9.0 | 15.0 | 0.00 | 0.00 | 0.00 | 73 | 1014.5 |
| 20260506091514 | 61 | 238 | 11.0 | 14.0 | 0.00 | 0.00 | 0.00 | 73 | 1014.5 |
| 20260506090015 | 60 | 254 | 9.0 | 14.0 | 0.00 | 0.00 | 0.00 | 75 | 1014.4 |
| 20260506084515 | 59 | 241 | 7.0 | 16.0 | 0.00 | 0.00 | 0.00 | 76 | 1014.3 |
| 20260506083022 | 59 | 273 | 8.0 | 14.0 | 0.00 | 0.00 | 0.00 | 77 | 1014.4 |
| 20260506081524 | 59 | 254 | 9.0 | 14.0 | 0.00 | 0.00 | 0.00 | 78 | 1014.5 |
| 20260506073018 | 57 | 228 | 9.0 | 13.0 | 0.00 | 0.00 | 0.00 | 84 | 1014.6 |